,,PA_Meas_PMT16A,,PR_Meas_QMR101_102,,RH_Meas_QMH101,,SR_Meas_QMS101,,TA_Meas_QMH101,,GenWind,,GenWind,
time,status,PA,status,PR,status,RH,status,SR,status,TA,status,DirAvg,status,SpdAvg,
2016-04-20, 07:08:04,VALID,918.143,VALID,0,INVALID,110.898,VALID,116.251,VALID,21.2632,VALID,149,VALID,0,
2016-04-20, 07:17:04,VALID,918.195,VALID,0,INVALID,109.312,VALID,157.186,VALID,21.964,VALID,156,VALID,0,
2016-04-20, 07:19:04,VALID,918.241,VALID,0,VALID,104,VALID,119.152,VALID,22.1217,VALID,148,VALID,0,
2016-04-20, 07:20:04,VALID,918.279,VALID,0,VALID,104,VALID,131.508,VALID,22.1803,VALID,167,VALID,0,
2016-04-20, 07:21:04,VALID,918.3,VALID,0,VALID,104,VALID,137.31,VALID,22.2388,VALID,171,VALID,0.414453,
2016-04-20, 07:22:04,VALID,918.309,VALID,0,VALID,104,VALID,123.342,VALID,22.2974,VALID,145,VALID,0,
2016-04-20, 07:23:04,VALID,918.328,VALID,0,VALID,104,VALID,116.144,VALID,22.3169,VALID,154,VALID,0,
2016-04-20, 07:24:04,VALID,918.353,VALID,0,VALID,104,VALID,130.863,VALID,22.3364,VALID,162,VALID,0,
2016-04-20, 07:25:04,VALID,918.399,VALID,0,VALID,104,VALID,125.491,VALID,22.3754,VALID,156,VALID,0,
2016-04-20, 07:26:04,VALID,918.406,VALID,0,VALID,104,VALID,136.343,VALID,22.4128,VALID,158,VALID,0,
2016-04-20, 07:27:04,VALID,918.46,VALID,0,VALID,104,VALID,217.568,VALID,22.5121,VALID,148,VALID,0.0078125,
2016-04-20, 07:28:04,VALID,918.47,VALID,0,VALID,104,VALID,179.964,VALID,22.6096,VALID,163,VALID,0.274609,
2016-04-20, 07:29:04,VALID,918.485,VALID,0,VALID,104,VALID,232.18,VALID,22.686,VALID,172,VALID,0.586328,
2016-04-20, 07:30:04,VALID,918.538,VALID,0,VALID,104,VALID,226.808,VALID,22.8243,VALID,141,VALID,0,
2016-04-20, 07:31:04,VALID,918.557,VALID,0,VALID,104,VALID,138.277,VALID,22.8812,VALID,155,VALID,0.975,
2016-04-20, 07:32:04,VALID,918.588,VALID,0,VALID,104,VALID,130.111,VALID,22.9415,VALID,171,VALID,0.00585938,
2016-04-20, 07:33:04,VALID,918.579,VALID,0,VALID,104,VALID,127.318,VALID,22.9397,VALID,166,VALID,0,
2016-04-20, 07:34:04,VALID,918.587,VALID,0,VALID,104,VALID,123.557,VALID,22.9219,VALID,137,VALID,0,
2016-04-20, 07:35:04,VALID,918.564,VALID,0,VALID,104,VALID,122.698,VALID,22.8243,VALID,144,VALID,0,
2016-04-20, 07:36:04,VALID,918.599,VALID,0,VALID,104,VALID,126.566,VALID,22.7463,VALID,157,VALID,0,
2016-04-20, 07:37:04,VALID,918.583,VALID,0,VALID,104,VALID,138.277,VALID,22.7463,VALID,164,VALID,0,
2016-04-20, 07:38:04,VALID,918.607,VALID,0,VALID,104,VALID,150.31,VALID,22.7658,VALID,160,VALID,0,
2016-04-20, 07:39:04,VALID,918.573,VALID,0,VALID,104,VALID,159.872,VALID,22.7445,VALID,160,VALID,0,
2016-04-20, 07:40:04,VALID,918.6,VALID,0,VALID,104,VALID,170.509,VALID,22.7853,VALID,150,VALID,0,
2016-04-20, 07:41:04,VALID,918.606,VALID,0,VALID,104,VALID,266.454,VALID,22.8226,VALID,157,VALID,0,
2016-04-20, 07:42:04,VALID,918.587,VALID,0,VALID,104,VALID,301.802,VALID,22.8812,VALID,162,VALID,0,
2016-04-20, 07:43:04,VALID,918.633,VALID,0,VALID,104,VALID,299.546,VALID,22.961,VALID,144,VALID,0,
2016-04-20, 07:44:04,VALID,918.629,VALID,0,VALID,104,VALID,306.959,VALID,23.0586,VALID,160,VALID,0,
2016-04-20, 07:45:04,VALID,918.654,VALID,0,VALID,104,VALID,311.579,VALID,23.1349,VALID,153,VALID,0.351563,
2016-04-20, 07:46:04,VALID,918.648,VALID,0,VALID,104,VALID,235.511,VALID,23.1952,VALID,181,VALID,1.33047,
2016-04-20, 07:47:04,VALID,918.671,VALID,0,VALID,104,VALID,252.916,VALID,23.3106,VALID,147,VALID,0.922656,
2016-04-20, 07:48:04,VALID,918.67,VALID,0,VALID,103.808,VALID,311.472,VALID,23.3496,VALID,150,VALID,1.88242,
2016-04-20, 07:49:04,VALID,918.7,VALID,0,VALID,104,VALID,321.034,VALID,23.3691,VALID,157,VALID,1.80664,
2016-04-20, 07:50:04,VALID,918.704,VALID,0,VALID,103.259,VALID,320.39,VALID,23.4472,VALID,155,VALID,1.93555,
2016-04-20, 07:51:04,VALID,918.706,VALID,0,VALID,103.617,VALID,317.059,VALID,23.5643,VALID,157,VALID,0,
2016-04-20, 07:52:04,VALID,918.725,VALID,0,VALID,101.879,VALID,321.679,VALID,23.6833,VALID,168,VALID,1.32773,
2016-04-20, 07:53:04,VALID,918.713,VALID,0,VALID,101.674,VALID,325.869,VALID,23.7187,VALID,152,VALID,0,
2016-04-20, 07:54:04,VALID,918.794,VALID,0,VALID,102.207,VALID,348.217,VALID,23.9158,VALID,158,VALID,0,
2016-04-20, 07:55:04,VALID,918.807,VALID,0,VALID,99.4398,VALID,195.221,VALID,23.9743,VALID,158,VALID,0,
2016-04-20, 07:56:04,VALID,918.867,VALID,0,VALID,98.8223,VALID,195.758,VALID,23.9158,VALID,139,VALID,0.0359375,
2016-04-20, 07:57:04,VALID,918.892,VALID,0,VALID,93.8824,VALID,204.461,VALID,23.7968,VALID,153,VALID,0,
2016-04-20, 07:58:04,VALID,918.906,VALID,0,VALID,99.4246,VALID,213.163,VALID,23.6992,VALID,143,VALID,1.50078,
2016-04-20, 07:59:04,VALID,918.928,VALID,0,VALID,102.535,VALID,298.472,VALID,23.6797,VALID,172,VALID,0.751562,
2016-04-20, 08:00:04,VALID,918.948,VALID,0,VALID,100.034,VALID,363.796,VALID,23.701,VALID,151,VALID,0,
2016-04-20, 08:01:04,VALID,918.945,VALID,0,VALID,101.529,VALID,373.895,VALID,23.7791,VALID,169,VALID,0,
2016-04-20, 08:02:04,VALID,918.936,VALID,0,VALID,100.347,VALID,372.391,VALID,23.8554,VALID,173,VALID,0,
2016-04-20, 08:03:04,VALID,918.943,VALID,0,VALID,100.423,VALID,371.639,VALID,23.992,VALID,168,VALID,0.162891,
2016-04-20, 08:04:04,VALID,918.907,VALID,0,VALID,95.9712,VALID,367.019,VALID,24.0506,VALID,170,VALID,0.256641,
2016-04-20, 08:05:04,VALID,918.892,VALID,0,VALID,92.2814,VALID,343.382,VALID,24.1482,VALID,180,VALID,0,
2016-04-20, 08:06:04,VALID,918.955,VALID,0,VALID,89.6742,VALID,328.555,VALID,24.244,VALID,164,VALID,0,
2016-04-20, 08:07:04,VALID,918.976,VALID,0,VALID,89.4608,VALID,340.696,VALID,24.3416,VALID,161,VALID,0,
2016-04-20, 08:08:04,VALID,918.983,VALID,0,VALID,90.1698,VALID,279.347,VALID,24.283,VALID,164,VALID,0,
2016-04-20, 08:09:04,VALID,918.97,VALID,0,VALID,92.4492,VALID,254.528,VALID,24.3416,VALID,172,VALID,0,
2016-04-20, 08:10:04,VALID,918.982,VALID,0,VALID,90.0173,VALID,326.514,VALID,24.3806,VALID,174,VALID,0,
2016-04-20, 08:11:04,VALID,918.949,VALID,0,VALID,84.4141,VALID,337.043,VALID,24.3806,VALID,170,VALID,0,
2016-04-20, 08:12:04,VALID,918.898,VALID,0,VALID,85.4128,VALID,341.018,VALID,24.4606,VALID,177,VALID,0,
2016-04-20, 08:13:04,VALID,918.872,VALID,0,VALID,82.0127,VALID,339.299,VALID,24.4997,VALID,177,VALID,0.0972656,
2016-04-20, 08:14:04,VALID,918.841,VALID,0,VALID,82.5082,VALID,342.952,VALID,24.4411,VALID,151,VALID,0.338281,
2016-04-20, 08:15:04,VALID,918.909,VALID,0,VALID,82.9504,VALID,343.919,VALID,24.244,VALID,164,VALID,0,
2016-04-20, 08:16:04,VALID,918.903,VALID,0,VALID,88.9729,VALID,339.944,VALID,24.3239,VALID,189,VALID,0,
2016-04-20, 08:17:04,VALID,918.926,VALID,0,VALID,83.3773,VALID,347.68,VALID,24.4801,VALID,191,VALID,0,
2016-04-20, 08:18:04,VALID,918.966,VALID,0,VALID,81.6773,VALID,346.283,VALID,24.5368,VALID,166,VALID,0,
2016-04-20, 08:19:04,VALID,918.983,VALID,0,VALID,82.6836,VALID,345.638,VALID,24.654,VALID,177,VALID,0,
2016-04-20, 08:20:04,VALID,919.01,VALID,0,VALID,84.3379,VALID,351.44,VALID,24.7321,VALID,152,VALID,0,
2016-04-20, 08:21:04,VALID,919,VALID,0,VALID,85.55,VALID,368.631,VALID,24.9292,VALID,152,VALID,0,
2016-04-20, 08:22:04,VALID,919.014,VALID,0,VALID,82.8055,VALID,383.887,VALID,25.025,VALID,131,VALID,0,
2016-04-20, 08:23:04,VALID,919.031,VALID,0,VALID,79.7104,VALID,389.259,VALID,25.1226,VALID,143,VALID,0,
2016-04-20, 08:24:04,VALID,919.042,VALID,0,VALID,81.662,VALID,399.789,VALID,25.2203,VALID,105,VALID,0,
2016-04-20, 08:25:04,VALID,919.032,VALID,0,VALID,79.1539,VALID,406.772,VALID,25.357,VALID,99,VALID,0,
2016-04-20, 08:26:04,VALID,919.042,VALID,0,VALID,79.1463,VALID,419.021,VALID,25.4546,VALID,105,VALID,0,
2016-04-20, 08:27:04,VALID,919.051,VALID,0,VALID,77.1871,VALID,417.731,VALID,25.5523,VALID,84,VALID,0.0363281,
2016-04-20, 08:28:04,VALID,919.056,VALID,0,VALID,77.7055,VALID,421.921,VALID,25.4527,VALID,95,VALID,0,
2016-04-20, 08:29:04,VALID,919.093,VALID,0,VALID,76.8364,VALID,421.384,VALID,25.5113,VALID,117,VALID,0.6375,
2016-04-20, 08:30:04,VALID,919.113,VALID,0,VALID,73.9014,VALID,438.467,VALID,25.355,VALID,113,VALID,1.52031,
2016-04-20, 08:31:04,VALID,919.109,VALID,0,VALID,77.0194,VALID,441.691,VALID,25.316,VALID,57,VALID,0,
2016-04-20, 08:32:04,VALID,919.137,VALID,0,VALID,77.9571,VALID,458.237,VALID,25.396,VALID,139,VALID,0.450391,
2016-04-20, 08:33:04,VALID,919.177,VALID,0,VALID,79.1616,VALID,469.088,VALID,25.2398,VALID,161,VALID,1.71445,
2016-04-20, 08:34:04,VALID,919.186,VALID,0,VALID,76.9584,VALID,481.444,VALID,25.1226,VALID,164,VALID,0,
2016-04-20, 08:35:04,VALID,919.212,VALID,0,VALID,79.1387,VALID,481.229,VALID,25.2788,VALID,128,VALID,0.319922,
2016-04-20, 08:36:04,VALID,919.177,VALID,0,VALID,79.3369,VALID,477.254,VALID,25.357,VALID,151,VALID,0,
2016-04-20, 08:37:04,VALID,919.161,VALID,0,VALID,77.7588,VALID,475.32,VALID,25.3765,VALID,174,VALID,0.285156,
2016-04-20, 08:38:04,VALID,919.16,VALID,0,VALID,76.9203,VALID,457.699,VALID,25.4741,VALID,178,VALID,0,
2016-04-20, 08:39:04,VALID,919.165,VALID,0,VALID,76.4019,VALID,444.377,VALID,25.689,VALID,186,VALID,0,
2016-04-20, 08:40:04,VALID,919.13,VALID,0,VALID,76.0359,VALID,422.459,VALID,25.8062,VALID,155,VALID,0,
2016-04-20, 08:41:04,VALID,919.156,VALID,0,VALID,74.8696,VALID,401.83,VALID,25.98,VALID,192,VALID,0.000390625,
2016-04-20, 08:42:04,VALID,919.145,VALID,0,VALID,74.6332,VALID,396.673,VALID,26.0796,VALID,158,VALID,0,
2016-04-20, 08:43:04,VALID,919.127,VALID,0,VALID,76.0436,VALID,398.499,VALID,26.0386,VALID,138,VALID,0,
2016-04-20, 08:44:04,VALID,919.13,VALID,0,VALID,73.9624,VALID,398.607,VALID,26.0992,VALID,46,VALID,0,
2016-04-20, 08:45:04,VALID,919.146,VALID,0,VALID,74.8162,VALID,396.136,VALID,26.1948,VALID,178,VALID,0,
2016-04-20, 08:46:04,VALID,919.15,VALID,0,VALID,74.0386,VALID,395.813,VALID,26.2164,VALID,149,VALID,0,
2016-04-20, 08:47:04,VALID,919.133,VALID,0,VALID,75.5099,VALID,422.673,VALID,26.0406,VALID,126,VALID,0.0195313,
2016-04-20, 08:48:04,VALID,919.152,VALID,0,VALID,73.2534,VALID,440.401,VALID,25.8843,VALID,127,VALID,0.0289063,
2016-04-20, 08:49:04,VALID,919.186,VALID,0,VALID,76.6611,VALID,435.137,VALID,25.9038,VALID,140,VALID,0,
2016-04-20, 08:50:04,VALID,919.213,VALID,0,VALID,74.0691,VALID,414.078,VALID,25.7847,VALID,155,VALID,0,
2016-04-20, 08:51:04,VALID,919.244,VALID,0,VALID,74.4503,VALID,386.896,VALID,25.7261,VALID,142,VALID,0,
2016-04-20, 08:52:04,VALID,919.229,VALID,0,VALID,74.3588,VALID,376.904,VALID,25.7085,VALID,151,VALID,0,
2016-04-20, 08:53:04,VALID,919.279,VALID,0,VALID,75.5023,VALID,357.457,VALID,25.6694,VALID,128,VALID,0,
2016-04-20, 08:54:04,VALID,919.338,VALID,0,VALID,73.2915,VALID,339.729,VALID,25.5913,VALID,112,VALID,0,
2016-04-20, 08:55:04,VALID,919.338,VALID,0,VALID,75.609,VALID,311.042,VALID,25.5894,VALID,115,VALID,0,
2016-04-20, 08:56:04,VALID,919.381,VALID,0,VALID,75.0983,VALID,256.14,VALID,25.5308,VALID,127,VALID,0,
2016-04-20, 08:57:04,VALID,919.386,VALID,0,VALID,75.4108,VALID,252.702,VALID,25.5484,VALID,131,VALID,0,
2016-04-20, 08:58:04,VALID,919.41,VALID,0,VALID,75.2279,VALID,278.702,VALID,25.6089,VALID,131,VALID,0,
2016-04-20, 08:59:04,VALID,919.385,VALID,0,VALID,74.7628,VALID,246.9,VALID,25.5874,VALID,181,VALID,0,
2016-04-20, 09:00:04,VALID,919.403,VALID,0,VALID,73.3601,VALID,283.322,VALID,25.607,VALID,186,VALID,0,
2016-04-20, 09:01:04,VALID,919.418,VALID,0,VALID,74.2902,VALID,295.785,VALID,25.607,VALID,143,VALID,0,
2016-04-20, 09:02:04,VALID,919.413,VALID,0,VALID,73.5355,VALID,296.108,VALID,25.648,VALID,142,VALID,0,
2016-04-20, 09:03:04,VALID,919.42,VALID,0,VALID,75.2126,VALID,254.528,VALID,25.6089,VALID,142,VALID,0,
2016-04-20, 09:04:04,VALID,919.397,VALID,0,VALID,75.8225,VALID,275.479,VALID,25.6284,VALID,154,VALID,0,
2016-04-20, 09:05:04,VALID,919.395,VALID,0,VALID,73.8099,VALID,286.331,VALID,25.646,VALID,147,VALID,0,
2016-04-20, 09:06:04,VALID,919.381,VALID,0,VALID,72.2242,VALID,274.62,VALID,25.7046,VALID,175,VALID,0,
2016-04-20, 09:07:04,VALID,919.355,VALID,0,VALID,72.6893,VALID,302.017,VALID,25.7437,VALID,181,VALID,0,
2016-04-20, 09:08:04,VALID,919.345,VALID,0,VALID,72.7426,VALID,289.554,VALID,25.7437,VALID,163,VALID,0,
2016-04-20, 09:09:04,VALID,919.379,VALID,0,VALID,72.5216,VALID,268.925,VALID,25.6851,VALID,156,VALID,0,
2016-04-20, 09:10:04,VALID,919.423,VALID,0,VALID,73.0552,VALID,246.04,VALID,25.6851,VALID,156,VALID,0,
2016-04-20, 09:11:04,VALID,919.411,VALID,0,VALID,73.0552,VALID,221.759,VALID,25.8022,VALID,156,VALID,0,
2016-04-20, 09:12:04,VALID,919.418,VALID,0,VALID,74.2673,VALID,224.015,VALID,25.978,VALID,156,VALID,0,
2016-04-20, 09:13:04,VALID,919.425,VALID,0,VALID,73.0476,VALID,237.66,VALID,26.1167,VALID,85,VALID,0,
2016-04-20, 09:14:04,VALID,919.444,VALID,0,VALID,72.2319,VALID,227.668,VALID,26.1342,VALID,85,VALID,0,
2016-04-20, 09:15:04,VALID,919.442,VALID,0,VALID,73.3678,VALID,226.916,VALID,26.1342,VALID,85,VALID,0,
2016-04-20, 09:16:04,VALID,919.44,VALID,0,VALID,75.3803,VALID,233.577,VALID,26.0757,VALID,85,VALID,0,
2016-04-20, 09:17:04,VALID,919.467,VALID,0,VALID,76.4476,VALID,259.148,VALID,25.9585,VALID,85,VALID,0,
2016-04-20, 09:18:04,VALID,919.446,VALID,0,VALID,77.553,VALID,248.404,VALID,25.8022,VALID,79,VALID,0,
2016-04-20, 09:19:04,VALID,919.478,VALID,0,VALID,78.2696,VALID,308.034,VALID,25.7261,VALID,47,VALID,0,
2016-04-20, 09:20:04,VALID,919.467,VALID,0,VALID,79.7181,VALID,337.688,VALID,25.7847,VALID,47,VALID,0,
2016-04-20, 09:21:04,VALID,919.463,VALID,0,VALID,79.5199,VALID,348.324,VALID,25.7847,VALID,46,VALID,0,
2016-04-20, 09:22:04,VALID,919.479,VALID,0,VALID,80.0306,VALID,368.201,VALID,25.8237,VALID,47,VALID,0,
2016-04-20, 09:23:04,VALID,919.498,VALID,0,VALID,78.4602,VALID,389.689,VALID,25.9604,VALID,47,VALID,0,
2016-04-20, 09:24:04,VALID,919.494,VALID,0,VALID,78.0562,VALID,398.929,VALID,26.019,VALID,46,VALID,0,
2016-04-20, 09:25:04,VALID,919.543,VALID,0,VALID,78.2162,VALID,402.475,VALID,26.1948,VALID,46,VALID,0,
2016-04-20, 09:26:04,VALID,919.512,VALID,0,VALID,76.4857,VALID,395.921,VALID,26.4683,VALID,46,VALID,0,
2016-04-20, 09:27:04,VALID,919.56,VALID,0,VALID,75.6853,VALID,410.21,VALID,26.5269,VALID,46,VALID,0,
2016-04-20, 09:28:04,VALID,919.547,VALID,0,VALID,75.266,VALID,426.756,VALID,26.6246,VALID,45,VALID,0,
2016-04-20, 09:29:04,VALID,919.554,VALID,0,VALID,74.3436,VALID,440.938,VALID,26.6246,VALID,46,VALID,0,
2016-04-20, 09:30:04,VALID,919.549,VALID,0,VALID,75.1364,VALID,448.459,VALID,26.5485,VALID,45,VALID,0,
2016-04-20, 09:31:04,VALID,919.561,VALID,0,VALID,75.1211,VALID,457.377,VALID,26.566,VALID,45,VALID,0,
2016-04-20, 09:32:04,VALID,919.567,VALID,0,VALID,75.3041,VALID,398.392,VALID,26.6246,VALID,45,VALID,0,
2016-04-20, 09:33:04,VALID,919.566,VALID,0,VALID,75.4337,VALID,453.831,VALID,26.605,VALID,45,VALID,0,
2016-04-20, 09:34:04,VALID,919.566,VALID,0,VALID,72.9561,VALID,470.485,VALID,26.5269,VALID,45,VALID,0,
2016-04-20, 09:35:04,VALID,919.582,VALID,0,VALID,74.2368,VALID,472.204,VALID,26.566,VALID,45,VALID,0,
2016-04-20, 09:36:04,VALID,919.6,VALID,0,VALID,74.5418,VALID,468.873,VALID,26.6421,VALID,45,VALID,0,
2016-04-20, 09:37:04,VALID,919.606,VALID,0,VALID,72.7655,VALID,333.605,VALID,26.7809,VALID,45,VALID,0,
2016-04-20, 09:38:04,VALID,919.621,VALID,0,VALID,73.0857,VALID,312.869,VALID,26.8004,VALID,45,VALID,0,
2016-04-20, 09:39:04,VALID,919.634,VALID,0,VALID,73.5202,VALID,324.472,VALID,26.6832,VALID,45,VALID,0,
2016-04-20, 09:40:04,VALID,919.638,VALID,0,VALID,74.2521,VALID,493.37,VALID,26.5444,VALID,45,VALID,0,
2016-04-20, 09:41:04,VALID,919.624,VALID,0,VALID,75.4489,VALID,514.321,VALID,26.5464,VALID,45,VALID,0,
2016-04-20, 09:42:04,VALID,919.625,VALID,0,VALID,74.6027,VALID,520.23,VALID,26.5835,VALID,45,VALID,0,
2016-04-20, 09:43:04,VALID,919.607,VALID,0,VALID,74.2292,VALID,519.156,VALID,26.5054,VALID,46,VALID,0,
2016-04-20, 09:44:04,VALID,919.586,VALID,0,VALID,75.0373,VALID,549.024,VALID,26.4643,VALID,45,VALID,0,
2016-04-20, 09:45:04,VALID,919.62,VALID,0,VALID,75.4108,VALID,552.033,VALID,26.4468,VALID,45,VALID,0,
2016-04-20, 09:46:04,VALID,919.632,VALID,0,VALID,74.3512,VALID,553.214,VALID,26.2494,VALID,45,VALID,0,
2016-04-20, 09:47:04,VALID,919.632,VALID,0,VALID,74.0234,VALID,559.983,VALID,26.2319,VALID,321,VALID,0,
2016-04-20, 09:48:04,VALID,919.683,VALID,0,VALID,72.4987,VALID,444.591,VALID,26.271,VALID,319,VALID,0,
2016-04-20, 09:49:04,VALID,919.696,VALID,0,VALID,72.3005,VALID,603.819,VALID,26.3491,VALID,319,VALID,0,
2016-04-20, 09:50:04,VALID,919.686,VALID,0,VALID,73.322,VALID,599.414,VALID,26.5444,VALID,354,VALID,0.0269531,
2016-04-20, 09:51:04,VALID,919.671,VALID,0,VALID,73.9471,VALID,645.614,VALID,26.7984,VALID,353,VALID,0.00703125,
2016-04-20, 09:52:04,VALID,919.67,VALID,0,VALID,70.2574,VALID,378.085,VALID,26.9156,VALID,258,VALID,0,
2016-04-20, 09:53:04,VALID,919.669,VALID,0,VALID,71.3857,VALID,435.781,VALID,26.9156,VALID,259,VALID,0,
2016-04-20, 09:54:04,VALID,919.672,VALID,0,VALID,72.1023,VALID,514.536,VALID,26.896,VALID,288,VALID,0,
2016-04-20, 09:55:04,VALID,919.675,VALID,0,VALID,72.6588,VALID,582.546,VALID,26.9156,VALID,360,VALID,0,
2016-04-20, 09:56:04,VALID,919.674,VALID,0,VALID,72.9408,VALID,497.56,VALID,26.9526,VALID,29,VALID,0.417188,
2016-04-20, 09:57:04,VALID,919.687,VALID,0,VALID,72.613,VALID,573.736,VALID,27.0698,VALID,295,VALID,0.15625,
2016-04-20, 09:58:04,VALID,919.682,VALID,0,VALID,70.7758,VALID,410.855,VALID,27.0307,VALID,281,VALID,0,
2016-04-20, 09:59:04,VALID,919.668,VALID,0,VALID,70.7758,VALID,358.424,VALID,27.0307,VALID,286,VALID,0,
2016-04-20, 10:00:04,VALID,919.688,VALID,0,VALID,71.8583,VALID,355.523,VALID,27.0893,VALID,287,VALID,0,
2016-04-20, 10:01:04,VALID,919.699,VALID,0,VALID,72.7884,VALID,341.018,VALID,27.0698,VALID,287,VALID,0,
2016-04-20, 10:02:04,VALID,919.725,VALID,0,VALID,70.5547,VALID,317.059,VALID,27.1305,VALID,286,VALID,0,
2016-04-20, 10:03:04,VALID,919.729,VALID,0,VALID,71.4238,VALID,343.812,VALID,27.0307,VALID,286,VALID,0,
2016-04-20, 10:04:04,VALID,919.723,VALID,0,VALID,73.3906,VALID,296.645,VALID,26.9937,VALID,262,VALID,0,
2016-04-20, 10:05:04,VALID,919.686,VALID,0,VALID,73.627,VALID,264.735,VALID,26.7984,VALID,252,VALID,0,
2016-04-20, 10:06:04,VALID,919.687,VALID,0,VALID,73.6651,VALID,245.61,VALID,26.6636,VALID,252,VALID,0.137891,
2016-04-20, 10:07:04,VALID,919.631,VALID,0,VALID,73.1467,VALID,225.626,VALID,26.308,VALID,247,VALID,0.832422,
2016-04-20, 10:08:04,VALID,919.666,VALID,0,VALID,75.67,VALID,205.75,VALID,26.0952,VALID,257,VALID,1.05742,
2016-04-20, 10:09:04,VALID,919.649,VALID,0,VALID,76.2189,VALID,188.667,VALID,25.978,VALID,254,VALID,0,
2016-04-20, 10:10:04,VALID,919.635,VALID,0,VALID,76.6611,VALID,184.047,VALID,25.9194,VALID,233,VALID,0.316406,
2016-04-20, 10:11:04,VALID,919.623,VALID,0,VALID,75.8682,VALID,189.634,VALID,25.7827,VALID,248,VALID,0,
2016-04-20, 10:12:04,VALID,919.618,VALID,0,VALID,77.2176,VALID,195.221,VALID,25.7046,VALID,248,VALID,0,
2016-04-20, 10:13:04,VALID,919.625,VALID,0,VALID,77.3853,VALID,201.022,VALID,25.646,VALID,250,VALID,0,
2016-04-20, 10:14:04,VALID,919.613,VALID,0,VALID,76.8517,VALID,204.89,VALID,25.5874,VALID,250,VALID,0,
2016-04-20, 10:15:04,VALID,919.631,VALID,0,VALID,76.1198,VALID,208.328,VALID,25.6284,VALID,250,VALID,0,
2016-04-20, 10:16:04,VALID,919.627,VALID,0,VALID,77.1032,VALID,212.089,VALID,25.5484,VALID,250,VALID,0,
2016-04-20, 10:17:04,VALID,919.623,VALID,0,VALID,76.6077,VALID,217.461,VALID,25.607,VALID,250,VALID,0,
2016-04-20, 10:18:04,VALID,919.629,VALID,0,VALID,76.6763,VALID,241.205,VALID,25.7046,VALID,249,VALID,0,
2016-04-20, 10:19:04,VALID,919.619,VALID,0,VALID,75.9673,VALID,262.049,VALID,25.8784,VALID,250,VALID,0,
2016-04-20, 10:20:04,VALID,919.655,VALID,0,VALID,76.2875,VALID,280.421,VALID,25.9194,VALID,250,VALID,0,
2016-04-20, 10:21:04,VALID,919.652,VALID,0,VALID,76.0359,VALID,251.735,VALID,25.8999,VALID,250,VALID,0,
2016-04-20, 10:22:04,VALID,919.666,VALID,0,VALID,75.9216,VALID,229.065,VALID,25.9194,VALID,250,VALID,0,
2016-04-20, 10:23:04,VALID,919.643,VALID,0,VALID,77.5301,VALID,244.321,VALID,26.0561,VALID,250,VALID,0,
2016-04-20, 10:24:04,VALID,919.66,VALID,0,VALID,75.2126,VALID,272.793,VALID,26.2319,VALID,250,VALID,0,
2016-04-20, 10:25:04,VALID,919.651,VALID,0,VALID,73.8099,VALID,250.445,VALID,26.4057,VALID,250,VALID,0,
2016-04-20, 10:26:04,VALID,919.635,VALID,0,VALID,72.4225,VALID,242.065,VALID,26.5424,VALID,250,VALID,0,
2016-04-20, 10:27:04,VALID,919.666,VALID,0,VALID,72.5063,VALID,240.883,VALID,26.6616,VALID,250,VALID,0,
2016-04-20, 10:28:04,VALID,919.612,VALID,0,VALID,71.1417,VALID,253.454,VALID,26.7788,VALID,250,VALID,0,
2016-04-20, 10:29:04,VALID,919.618,VALID,0,VALID,70.8215,VALID,293.314,VALID,26.857,VALID,250,VALID,0,
2016-04-20, 10:30:04,VALID,919.608,VALID,0,VALID,70.7377,VALID,357.994,VALID,26.9331,VALID,250,VALID,0,
2016-04-20, 10:31:04,VALID,919.57,VALID,0,VALID,70.3641,VALID,711.153,VALID,26.8374,VALID,250,VALID,0,
2016-04-20, 10:32:04,VALID,919.546,VALID,0,VALID,68.9386,VALID,427.938,VALID,26.6812,VALID,250,VALID,0,
2016-04-20, 10:33:04,VALID,919.553,VALID,0,VALID,71.7287,VALID,576.099,VALID,26.5835,VALID,250,VALID,0,
2016-04-20, 10:34:04,VALID,919.49,VALID,0,VALID,73.6346,VALID,770.783,VALID,26.603,VALID,250,VALID,0,
2016-04-20, 10:35:04,VALID,919.49,VALID,0,VALID,72.796,VALID,384.532,VALID,26.6812,VALID,250,VALID,0,
2016-04-20, 10:36:04,VALID,919.453,VALID,0,VALID,72.5825,VALID,752.088,VALID,26.8179,VALID,250,VALID,0,
2016-04-20, 10:37:04,VALID,919.48,VALID,0,VALID,70.3717,VALID,546.553,VALID,26.896,VALID,206,VALID,0,
2016-04-20, 10:38:04,VALID,919.45,VALID,0,VALID,70.5471,VALID,865.331,VALID,26.9156,VALID,237,VALID,0,
2016-04-20, 10:39:04,VALID,919.43,VALID,0,VALID,72.1633,VALID,850.074,VALID,26.9937,VALID,237,VALID,0,
2016-04-20, 10:40:04,VALID,919.412,VALID,0,VALID,68.6794,VALID,860.818,VALID,27.0893,VALID,284,VALID,0,
2016-04-20, 10:41:04,VALID,919.382,VALID,0,VALID,69.4646,VALID,794.42,VALID,27.2261,VALID,257,VALID,0,
2016-04-20, 10:42:04,VALID,919.358,VALID,0,VALID,68.4888,VALID,859.959,VALID,27.404,VALID,276,VALID,0,
2016-04-20, 10:43:04,VALID,919.368,VALID,0,VALID,67.4444,VALID,866.62,VALID,27.4996,VALID,284,VALID,0,
2016-04-20, 10:44:04,VALID,919.351,VALID,0,VALID,68.3592,VALID,385.177,VALID,27.4019,VALID,290,VALID,0,
2016-04-20, 10:45:04,VALID,919.343,VALID,0,VALID,67.9704,VALID,887.464,VALID,27.3628,VALID,254,VALID,0,
2016-04-20, 10:46:04,VALID,919.327,VALID,0,VALID,65.2488,VALID,636.266,VALID,27.3238,VALID,290,VALID,0,
2016-04-20, 10:47:04,VALID,919.344,VALID,0,VALID,67.4596,VALID,351.44,VALID,27.3433,VALID,252,VALID,0.398047,
2016-04-20, 10:48:04,VALID,919.319,VALID,0,VALID,66.9946,VALID,349.291,VALID,27.187,VALID,257,VALID,0,
2016-04-20, 10:49:04,VALID,919.313,VALID,0,VALID,66.6668,VALID,372.821,VALID,27.0523,VALID,247,VALID,0.00195313,
2016-04-20, 10:50:04,VALID,919.315,VALID,0,VALID,68.2982,VALID,464.576,VALID,27.0132,VALID,241,VALID,0,
2016-04-20, 10:51:04,VALID,919.3,VALID,0,VALID,69.5637,VALID,937.102,VALID,27.1284,VALID,330,VALID,0.107422,
2016-04-20, 10:52:04,VALID,919.279,VALID,0,VALID,68.8547,VALID,411.07,VALID,27.404,VALID,351,VALID,0,
2016-04-20, 10:53:04,VALID,919.226,VALID,0,VALID,66.8878,VALID,842.124,VALID,27.6559,VALID,351,VALID,0,
2016-04-20, 10:54:04,VALID,919.235,VALID,0,VALID,65.104,VALID,825.578,VALID,28.0662,VALID,351,VALID,0,
2016-04-20, 10:55:04,VALID,919.216,VALID,0,VALID,64.4179,VALID,860.174,VALID,28.3007,VALID,317,VALID,0,
2016-04-20, 10:56:04,VALID,919.199,VALID,0,VALID,63.0914,VALID,858.455,VALID,28.3984,VALID,314,VALID,0,
2016-04-20, 10:57:04,VALID,919.189,VALID,0,VALID,61.8793,VALID,826.867,VALID,28.5135,VALID,313,VALID,0,
2016-04-20, 10:58:04,VALID,919.156,VALID,0,VALID,61.803,VALID,399.251,VALID,28.748,VALID,313,VALID,0,
2016-04-20, 10:59:04,VALID,919.157,VALID,0,VALID,62.2223,VALID,809.569,VALID,28.8848,VALID,313,VALID,0,
2016-04-20, 11:00:04,VALID,919.108,VALID,0,VALID,63.7013,VALID,824.611,VALID,29.0021,VALID,193,VALID,0.578516,
2016-04-20, 11:01:04,VALID,919.115,VALID,0,VALID,63.5564,VALID,832.024,VALID,29.0803,VALID,180,VALID,0.00585938,
2016-04-20, 11:02:04,VALID,919.083,VALID,0,VALID,61.8107,VALID,855.124,VALID,29.1389,VALID,185,VALID,0.120312,